This is the latest recevied weather packets stored in our database for station/object SR8WXL-13. If no packets are shown the sender has not sent any weather packets the latest 10 day(s).
| Time | Temp. | Humidity | Pressure | Rain* | Wind** | Luminosity | Snow |
|---|---|---|---|---|---|---|---|
| 1788258354 | 23.89° C | 58% | 1032.4 hPa | 0 mm | - | - | - |
| 1788257548 | 23.89° C | 59% | 1032.3 hPa | 0 mm | - | - | - |
| 1788256809 | 23.89° C | 57% | 1032.4 hPa | 0 mm | - | - | - |
| 1788256003 | 22.22° C | 62% | 1032.2 hPa | 0 mm | - | - | - |
| 1788255124 | 22.78° C | 59% | 1032.5 hPa | 0 mm | - | - | - |
| 1788254284 | 22.78° C | 60% | 1032.2 hPa | 0 mm | - | - | - |
| 1788253443 | 22.78° C | 59% | 1032.5 hPa | 0 mm | - | - | - |
| 1788252641 | 22.78° C | 58% | 1032.4 hPa | 0 mm | - | - | - |
| 1788251761 | 22.22° C | 60% | 1032.4 hPa | 0 mm | - | - | - |
| 1788250928 | 22.78° C | 58% | 1032.2 hPa | 0 mm | - | - | - |
| 1788250178 | 22.22° C | 67% | 1032.2 hPa | 0 mm | - | - | - |
| 1788249359 | 21.11° C | 69% | 1032.2 hPa | 0 mm | - | - | - |
| 1788248628 | 22.22° C | 69% | 1032.3 hPa | 0 mm | - | - | - |
| 1788247834 | 21.11° C | 72% | 1032 hPa | 0 mm | - | - | - |
| 1788247103 | 20° C | 74% | 1032 hPa | 0 mm | - | - | - |
| 1788246290 | 20° C | 78% | 1032.1 hPa | 0 mm | - | - | - |
| 1788245418 | 20° C | 79% | 1032.1 hPa | 0 mm | - | - | - |
| 1788244604 | 20° C | 79% | 1032 hPa | 0 mm | - | - | - |
| 1788243883 | 20° C | 81% | 1031.7 hPa | 0 mm | - | - | - |
| 1788243010 | 17.78° C | 91% | 1031.6 hPa | 0 mm | - | - | - |
| 1788242223 | 17.22° C | 94% | 1031.9 hPa | 0 mm | - | - | - |
| 1788241465 | 17.22° C | 95% | 1031.5 hPa | 0 mm | - | - | - |
| 1788240688 | 17.22° C | 96% | 1031.3 hPa | 0 mm | - | - | - |
| 1788239904 | 16.11° C | 96% | 1031.3 hPa | 0 mm | - | - | - |
| 1788239123 | 16.11° C | 97% | 1031.3 hPa | 0 mm | - | - | - |
* Rain latest hour (hover to see other rain measurements)
** Current wind speed in m/s (hover to see current wind gust speed)